YO8SDE-8 Weather Reports


time (UTC)temp
C
wind
direction
speed
KPH
gust
KPH
rain 1hr
cm
rain 24hr
cm
rain mn
cm
humidity
%
barometer
mb
20260905022609 16 247 0.0 0.0 0.00 0.00 0.00 81 1000.8
20260905022109 15 247 0.0 0.0 0.00 0.00 0.00 82 1000.8
20260905021609 15 247 0.0 0.0 0.00 0.00 0.00 81 1000.8
20260905021109 15 247 0.0 0.0 0.00 0.00 0.00 80 1000.8
20260905020609 15 247 0.0 0.0 0.00 0.00 0.00 79 1000.8
20260905020109 15 247 0.0 0.0 0.00 0.00 0.00 79 1000.9
20260905015609 15 247 0.0 0.0 0.00 0.00 0.00 77 1001.0
20260905015109 14 247 0.0 0.0 0.00 0.00 0.00 77 1000.9
20260905014609 14 247 0.0 0.0 0.00 0.00 0.00 77 1000.9
20260905014109 15 247 0.0 0.0 0.00 0.00 0.00 77 1000.9
20260905013609 14 225 0.0 0.0 0.00 0.00 0.00 75 1000.8
20260905013109 14 225 0.0 0.0 0.00 0.00 0.00 75 1000.8
20260905012609 14 225 0.0 0.0 0.00 0.00 0.00 75 1000.8
20260905012109 14 225 0.0 0.0 0.00 0.00 0.00 75 1000.9
20260905011609 14 225 0.0 0.0 0.00 0.00 0.00 75 1000.8
20260905011109 14 225 0.0 0.0 0.00 0.00 0.00 74 1000.9
20260905010609 13 225 0.0 0.0 0.00 0.00 0.00 74 1000.8
20260905010109 13 225 0.0 0.0 0.00 0.00 0.00 73 1000.9
20260905005609 13 225 0.0 0.0 0.00 0.00 0.00 71 1000.8
20260905005109 13 225 0.0 0.0 0.00 0.00 0.00 71 1000.9
20260905004609 13 225 0.0 0.0 0.00 0.00 0.00 71 1000.9
20260905004109 13 225 0.0 0.0 0.00 0.00 0.00 69 1001.0
20260905003609 13 225 0.0 0.0 0.00 0.00 0.00 69 1000.9
20260905003109 13 225 0.0 0.0 0.00 0.00 0.00 65 1001.0
20260905002609 13 225 0.0 0.0 0.00 0.00 0.00 65 1001.1
20260905002109 14 225 0.0 0.0 0.00 0.00 0.00 65 1001.1
20260905001609 15 225 0.0 0.0 0.00 0.00 0.00 65 1001.0
20260905001109 16 225 0.0 0.0 0.00 0.00 0.00 65 1001.1
20260905000609 16 225 0.0 0.0 0.00 0.00 0.00 65 1001.1
20260905000109 16 225 0.0 0.0 0.00 0.00 0.00 65 1001.1
20260904235609 17 225 0.0 0.0 0.00 0.00 0.00 65 1001.1
20260904235109 17 225 0.0 0.0 0.00 0.00 0.00 65 1001.2
20260904234609 17 225 0.0 0.0 0.00 0.00 0.00 65 1001.2
20260904234109 18 202 0.0 0.0 0.00 0.00 0.00 65 1001.3
20260904233609 18 225 0.0 0.0 0.00 0.00 0.00 65 1001.3
20260904233109 18 225 0.0 0.0 0.00 0.00 0.00 65 1001.3
20260904232609 18 225 0.0 0.0 0.00 0.00 0.00 65 1001.4
20260904232109 18 225 0.0 0.0 0.00 0.00 0.00 65 1001.3
20260904231609 18 247 0.0 0.0 0.00 0.00 0.00 65 1001.2
20260904231109 17 225 0.0 0.0 0.00 0.00 0.00 65 1001.3
20260904230609 17 225 0.0 0.0 0.00 0.00 0.00 65 1001.3
20260904230109 17 225 0.0 0.0 0.00 0.00 0.00 65 1001.3
20260904225609 17 247 0.0 0.0 0.00 0.00 0.00 65 1001.3
20260904225109 17 247 0.0 0.0 0.00 0.00 0.00 65 1001.4
20260904224609 17 202 0.0 0.0 0.00 0.00 0.00 65 1001.4
20260904224109 17 202 0.0 0.0 0.00 0.00 0.00 64 1001.3
20260904223609 16 225 0.0 0.0 0.00 0.00 0.00 64 1001.5
20260904223109 16 225 0.0 0.0 0.00 0.00 0.00 64 1001.5
20260904222609 16 225 0.0 0.0 0.00 0.00 0.00 64 1001.5
20260904222109 16 225 0.0 0.0 0.00 0.00 0.00 64 1001.7
20260904221609 16 225 0.0 0.0 0.00 0.00 0.00 64 1001.8
20260904221109 16 225 0.0 0.0 0.00 0.00 0.00 64 1001.8
20260904220609 16 225 0.0 0.0 0.00 0.00 0.00 64 1001.8
20260904220109 16 225 0.0 0.0 0.00 0.00 0.00 64 1001.7
20260904215609 16 225 0.0 0.0 0.00 0.00 0.00 64 1001.8
20260904215109 16 225 0.0 0.0 0.00 0.00 0.00 64 1001.8
20260904214609 16 225 0.0 0.0 0.00 0.00 0.00 64 1001.9
20260904214109 16 225 0.0 0.0 0.00 0.00 0.00 64 1001.8
20260904213609 15 225 0.0 0.0 0.00 0.00 0.00 64 1001.9
20260904213109 15 225 0.0 0.0 0.00 0.00 0.00 64 1001.8
20260904212609 15 225 0.0 0.0 0.00 0.00 0.00 64 1001.8
20260904212109 15 225 0.0 0.0 0.00 0.00 0.00 64 1001.8
20260904211609 15 225 0.0 0.0 0.00 0.00 0.00 65 1001.8
20260904211109 15 225 0.0 0.0 0.00 0.00 0.00 64 1001.8
20260904210609 15 225 0.0 0.0 0.00 0.00 0.00 65 1001.9
20260904210109 15 225 0.0 0.0 0.00 0.00 0.00 65 1001.9
20260904205609 16 225 0.0 0.0 0.00 0.00 0.00 65 1001.8
20260904205109 16 225 0.0 0.0 0.00 0.00 0.00 65 1001.9
20260904204609 17 225 0.0 0.0 0.00 0.00 0.00 65 1001.8
20260904204109 17 225 0.0 0.0 0.00 0.00 0.00 65 1001.8
20260904203609 17 225 0.0 0.0 0.00 0.00 0.00 66 1002.0
20260904203109 18 225 0.0 0.0 0.00 0.00 0.00 66 1002.0
20260904202609 18 225 0.0 0.0 0.00 0.00 0.00 66 1002.0
20260904202109 19 225 0.0 0.0 0.00 0.00 0.00 66 1001.9
20260904201609 19 225 0.0 0.0 0.00 0.00 0.00 66 1001.9
20260904201109 19 225 0.0 0.0 0.00 0.00 0.00 66 1001.9
20260904200609 19 225 0.0 0.0 0.00 0.00 0.00 66 1001.9
20260904200109 19 225 0.0 0.0 0.00 0.00 0.00 66 1001.9
20260904195609 19 225 0.0 0.0 0.00 0.00 0.00 67 1001.8
20260904195109 19 225 0.0 0.0 0.00 0.00 0.00 66 1001.9
20260904194609 20 225 0.0 0.0 0.00 0.00 0.00 66 1002.0
20260904194109 20 225 0.0 0.0 0.00 0.00 0.00 66 1001.9
20260904193609 20 225 0.0 0.0 0.00 0.00 0.00 66 1002.0
20260904193109 21 225 0.0 0.0 0.00 0.00 0.00 66 1002.2
20260904192609 21 225 0.0 0.0 0.00 0.00 0.00 65 1002.2
20260904192109 21 247 0.0 0.0 0.00 0.00 0.00 65 1002.1
20260904191609 21 225 0.0 0.0 0.00 0.00 0.00 65 1002.2
20260904191109 21 225 0.0 0.0 0.00 0.00 0.00 65 1002.2
20260904190609 21 202 0.0 0.0 0.00 0.00 0.00 65 1002.1
20260904190109 21 202 0.0 0.0 0.00 0.00 0.00 65 1002.1
20260904185609 21 225 0.0 0.0 0.00 0.00 0.00 65 1002.0
20260904185109 21 225 0.0 0.0 0.00 0.00 0.00 65 1002.1
20260904184609 21 225 0.0 0.0 0.00 0.00 0.00 65 1002.1
20260904184109 21 225 0.0 0.0 0.00 0.00 0.00 65 1002.0
20260904183609 21 202 0.0 0.0 0.00 0.00 0.00 65 1002.0
20260904183109 21 202 0.0 0.0 0.00 0.00 0.00 65 1002.0
20260904182609 21 202 0.0 0.0 0.00 0.00 0.00 64 1002.0
20260904182109 21 180 0.0 0.0 0.00 0.00 0.00 64 1001.9
20260904181609 21 180 0.0 0.0 0.00 0.00 0.00 63 1001.9
20260904181109 21 180 0.0 0.0 0.00 0.00 0.00 62 1002.0
20260904180609 21 180 0.0 0.0 0.00 0.00 0.00 61 1001.9
20260904180109 21 180 0.0 0.0 0.00 0.00 0.00 61 1001.8
20260904175609 22 180 0.0 0.0 0.00 0.00 0.00 60 1001.9
20260904175109 22 180 0.0 0.0 0.00 0.00 0.00 59 1001.9
20260904174609 22 180 0.0 0.0 0.00 0.00 0.00 58 1002.1
20260904174109 22 180 0.0 0.0 0.00 0.00 0.00 57 1002.1
20260904173609 22 225 0.0 0.0 0.00 0.00 0.00 57 1002.1
20260904173109 23 225 0.0 0.0 0.00 0.00 0.00 57 1002.0
20260904172609 23 225 0.0 0.0 0.00 0.00 0.00 56 1002.0
20260904172109 23 225 0.0 0.0 0.00 0.00 0.00 55 1001.9
20260904171609 23 225 0.0 0.0 0.00 0.00 0.00 54 1001.9
20260904171109 23 225 0.0 0.0 0.00 0.00 0.00 53 1001.9
20260904170609 23 225 0.0 0.0 0.00 0.00 0.00 53 1001.9
20260904170109 23 225 0.0 0.0 0.00 0.00 0.00 53 1001.8
20260904165609 23 135 0.0 0.0 0.00 0.00 0.00 51 1001.8
20260904165109 24 135 0.0 0.0 0.00 0.00 0.00 51 1001.6
20260904164609 24 135 0.0 0.0 0.00 0.00 0.00 50 1001.5
20260904164109 25 135 0.0 0.0 0.00 0.00 0.00 50 1001.6
20260904163609 25 135 0.0 0.0 0.00 0.00 0.00 49 1001.5
20260904163109 25 135 0.0 0.0 0.00 0.00 0.00 49 1001.4
20260904162610 25 135 0.0 0.0 0.00 0.00 0.00 48 1001.4
20260904162109 25 135 0.0 0.0 0.00 0.00 0.00 48 1001.4
20260904161609 25 135 0.0 0.0 0.00 0.00 0.00 47 1001.5
20260904161109 25 135 0.0 0.0 0.00 0.00 0.00 46 1001.6
20260904160609 26 135 0.0 0.0 0.00 0.00 0.00 46 1001.6
20260904160109 26 135 0.0 0.0 0.00 0.00 0.00 44 1001.7
20260904155609 26 135 0.0 0.0 0.00 0.00 0.00 43 1001.7
20260904155109 26 135 0.0 0.0 0.00 0.00 0.00 42 1001.8
20260904154609 27 135 0.0 0.0 0.00 0.00 0.00 42 1001.8
20260904154109 27 135 0.0 0.0 0.00 0.00 0.00 41 1001.8
20260904153609 27 135 0.0 0.0 0.00 0.00 0.00 40 1001.7
20260904153109 28 135 0.0 0.0 0.00 0.00 0.00 39 1001.6
20260904152609 28 135 0.0 0.0 0.00 0.00 0.00 38 1001.8
20260904152109 29 135 0.0 0.0 0.00 0.00 0.00 38 1001.7
20260904151609 30 135 0.0 0.0 0.00 0.00 0.00 36 1001.8
20260904151109 31 135 0.0 0.0 0.00 0.00 0.00 35 1001.7
20260904150609 31 135 0.0 0.0 0.00 0.00 0.00 35 1001.7
20260904150109 31 135 0.0 0.0 0.00 0.00 0.00 36 1001.6
20260904145609 31 135 0.0 0.0 0.00 0.00 0.00 36 1001.5
20260904145109 31 157 0.0 0.0 0.00 0.00 0.00 37 1001.5
20260904144609 30 157 0.0 0.0 0.00 0.00 0.00 37 1001.5
20260904144109 30 157 0.0 0.0 0.00 0.00 0.00 37 1001.5
20260904143609 30 157 0.0 0.0 0.00 0.00 0.00 36 1001.7
20260904143110 30 157 0.0 0.0 0.00 0.00 0.00 35 1001.7
20260904142609 31 135 0.0 0.0 0.00 0.00 0.00 33 1001.7
20260904142109 32 157 0.0 0.0 0.00 0.00 0.00 32 1001.7
20260904141609 33 202 0.0 0.0 0.00 0.00 0.00 31 1001.7
20260904141109 34 135 0.0 0.0 0.00 0.00 0.00 31 1001.8
20260904140609 35 135 0.0 0.0 0.00 0.00 0.00 31 1001.8
20260904140109 35 135 0.0 0.0 0.00 0.00 0.00 31 1002.0
20260904135609 35 112 0.0 0.0 0.00 0.00 0.00 31 1001.9
20260904135109 36 180 0.0 0.0 0.00 0.00 0.00 31 1002.0
20260904134609 36 247 0.0 0.0 0.00 0.00 0.00 32 1002.1
20260904134109 35 225 0.0 0.0 0.00 0.00 0.00 33 1002.2
20260904133609 33 135 0.0 0.0 0.00 0.00 0.00 35 1002.1
20260904133109 32 22 0.0 0.0 0.00 0.00 0.00 35 1002.0
20260904132609 31 247 0.0 0.0 0.00 0.00 0.00 37 1002.2
20260904132109 30 225 0.0 0.0 0.00 0.00 0.00 39 1002.1
20260904131609 29 202 0.0 0.0 0.00 0.00 0.00 39 1002.2
20260904131109 29 157 0.0 0.0 0.00 0.00 0.00 38 1002.1
20260904130609 29 247 0.0 0.0 0.00 0.00 0.00 38 1002.1
20260904130109 29 247 0.0 0.0 0.00 0.00 0.00 37 1002.0
20260904125609 29 270 0.0 0.0 0.00 0.00 0.00 37 1001.9
20260904125109 30 225 0.0 0.0 0.00 0.00 0.00 37 1002.0
20260904124609 29 247 0.0 0.0 0.00 0.00 0.00 37 1002.0
20260904124109 29 315 0.0 0.0 0.00 0.00 0.00 37 1002.0
20260904123609 30 270 0.0 0.0 0.00 0.00 0.00 36 1002.1
20260904123109 30 292 0.0 0.0 0.00 0.00 0.00 35 1002.2
20260904122609 31 270 0.0 0.0 0.00 0.00 0.00 33 1002.2
20260904122109 33 270 0.0 0.0 0.00 0.00 0.00 31 1002.1
20260904121610 33 292 0.0 0.0 0.00 0.00 0.00 31 1002.1
20260904121110 34 112 0.0 0.0 0.00 0.00 0.00 30 1002.1
20260904120609 33 135 0.0 0.0 0.00 0.00 0.00 30 1002.2
20260904120109 35 180 0.0 0.0 0.00 0.00 0.00 27 1002.3
20260904115609 37 270 0.0 0.0 0.00 0.00 0.00 26 1002.5
20260904115109 37 247 0.0 0.0 0.00 0.00 0.00 27 1002.6
20260904114610 37 157 0.0 0.0 0.00 0.00 0.00 28 1002.7
20260904114110 38 225 0.0 0.0 0.00 0.00 0.00 26 1002.6
20260904113609 37 180 0.0 0.0 0.00 0.00 0.00 28 1002.8
20260904113110 37 67 0.0 0.0 0.00 0.00 0.00 29 1002.8
20260904112610 36 270 0.0 0.0 0.00 0.00 0.00 27 1002.9
20260904112110 37 270 0.0 0.0 0.00 0.00 0.00 26 1002.8
20260904111609 36 0 0.0 0.0 0.00 0.00 0.00 29 1002.9
20260904111110 35 337 0.0 0.0 0.00 0.00 0.00 30 1003.0
20260904110610 35 292 0.0 0.0 0.00 0.00 0.00 29 1003.0
20260904110110 35 247 0.0 0.0 0.00 0.00 0.00 30 1003.0
20260904105610 35 112 0.0 0.0 0.00 0.00 0.00 30 1003.1
20260904105110 35 270 0.0 0.0 0.00 0.00 0.00 28 1003.2
20260904104610 35 180 0.0 0.0 0.00 0.00 0.00 30 1003.1
20260904104110 35 225 0.0 0.0 0.00 0.00 0.00 28 1003.3
20260904103610 36 247 0.0 0.0 0.00 0.00 0.00 30 1003.3
20260904103110 36 225 0.0 0.0 0.00 0.00 0.00 30 1003.3
20260904102610 36 247 0.0 0.0 0.00 0.00 0.00 30 1003.3
20260904102110 35 270 0.0 0.0 0.00 0.00 0.00 31 1003.4
20260904101610 34 247 0.0 0.0 0.00 0.00 0.00 32 1003.3
20260904101110 35 270 0.0 0.0 0.00 0.00 0.00 31 1003.4
20260904100610 35 112 0.0 0.0 0.00 0.00 0.00 33 1003.4
20260904100110 35 225 0.0 0.0 0.00 0.00 0.00 33 1003.5
20260904095610 35 247 0.0 0.0 0.00 0.00 0.00 32 1003.4
20260904095110 35 202 0.0 0.0 0.00 0.00 0.00 33 1003.5
20260904094610 35 247 0.0 0.0 0.00 0.00 0.00 33 1003.5
20260904094110 35 157 0.0 0.0 0.00 0.00 0.00 33 1003.6
20260904093610 35 135 0.0 0.0 0.00 0.00 0.00 34 1003.7
20260904093110 34 202 0.0 0.0 0.00 0.00 0.00 35 1003.7
20260904092610 33 157 0.0 0.0 0.00 0.00 0.00 38 1003.8
20260904092110 32 135 0.0 0.0 0.00 0.00 0.00 38 1003.9
20260904091610 32 157 0.0 0.0 0.00 0.00 0.00 39 1004.0
20260904091110 32 135 0.0 0.0 0.00 0.00 0.00 37 1004.1
20260904090610 33 112 0.0 0.0 0.00 0.00 0.00 39 1003.9
20260904090110 32 135 0.0 0.0 0.00 0.00 0.00 38 1004.1
20260904085610 33 112 0.0 0.0 0.00 0.00 0.00 38 1004.1
20260904085110 33 135 0.0 0.0 0.00 0.00 0.00 38 1004.1
20260904084610 32 135 0.0 0.0 0.00 0.00 0.00 40 1004.1
20260904084110 31 157 0.0 0.0 0.00 0.00 0.00 41 1004.3
20260904083610 31 112 0.0 0.0 0.00 0.00 0.00 41 1004.3
20260904083110 31 112 0.0 0.0 0.00 0.00 0.00 42 1004.4
20260904082610 31 135 0.0 0.0 0.00 0.00 0.00 42 1004.4
20260904082110 31 135 0.0 0.0 0.00 0.00 0.00 44 1004.3
20260904081610 31 202 0.0 0.0 0.00 0.00 0.00 46 1004.3
20260904081110 30 157 0.0 0.0 0.00 0.00 0.00 47 1004.2
20260904080610 31 45 0.0 0.0 0.00 0.00 0.00 47 1004.4
20260904080110 30 135 0.0 0.0 0.00 0.00 0.00 49 1004.4
20260904075610 30 112 0.0 0.0 0.00 0.00 0.00 50 1004.5
20260904075110 30 135 0.0 0.0 0.00 0.00 0.00 49 1004.5
20260904074610 30 247 0.0 0.0 0.00 0.00 0.00 51 1004.5
20260904074110 28 202 0.0 0.0 0.00 0.00 0.00 53 1004.6
20260904073610 27 202 0.0 0.0 0.00 0.00 0.00 55 1004.6
20260904073110 26 270 0.0 0.0 0.00 0.00 0.00 55 1004.7
20260904072610 26 270 0.0 0.0 0.00 0.00 0.00 58 1004.7
20260904072110 25 292 0.0 0.0 0.00 0.00 0.00 59 1004.7
20260904071610 25 270 0.0 0.0 0.00 0.00 0.00 59 1004.6
20260904071110 26 337 0.0 0.0 0.00 0.00 0.00 60 1004.5
20260904070610 26 67 0.0 0.0 0.00 0.00 0.00 61 1004.5
20260904070110 25 315 0.0 0.0 0.00 0.00 0.00 63 1004.6
20260904065610 25 315 0.0 0.0 0.00 0.00 0.00 64 1004.5
20260904065110 25 67 0.0 0.0 0.00 0.00 0.00 64 1004.5
20260904064610 25 292 0.0 0.0 0.00 0.00 0.00 64 1004.5
20260904064110 23 315 0.0 0.0 0.00 0.00 0.00 64 1004.6
20260904063610 21 225 0.0 0.0 0.00 0.00 0.00 64 1004.6
20260904063110 21 225 0.0 0.0 0.00 0.00 0.00 65 1004.6
20260904062610 21 135 0.0 0.0 0.00 0.00 0.00 71 1004.5
20260904062110 22 135 0.0 0.0 0.00 0.00 0.00 76 1004.4
20260904061610 21 135 0.0 0.0 0.00 0.00 0.00 77 1004.4
20260904061110 22 225 0.0 0.0 0.00 0.00 0.00 80 1004.5
20260904060610 21 225 0.0 0.0 0.00 0.00 0.00 82 1004.5
20260904060110 21 225 0.0 0.0 0.00 0.00 0.00 83 1004.5
20260904055610 20 247 0.0 0.0 0.00 0.00 0.00 85 1004.6
20260904055110 20 247 0.0 0.0 0.00 0.00 0.00 86 1004.5
20260904054610 19 247 0.0 0.0 0.00 0.00 0.00 87 1004.6
20260904054110 18 247 0.0 0.0 0.00 0.00 0.00 88 1004.6
20260904053610 18 270 0.0 0.0 0.00 0.00 0.00 89 1004.7
20260904053110 18 270 0.0 0.0 0.00 0.00 0.00 90 1004.7
20260904052610 17 270 0.0 0.0 0.00 0.00 0.00 91 1004.6
20260904052110 17 247 0.0 0.0 0.00 0.00 0.00 92 1004.7
20260904051610 17 270 0.0 0.0 0.00 0.00 0.00 92 1004.7
20260904051110 17 247 0.0 0.0 0.00 0.00 0.00 93 1004.7
20260904050610 17 270 0.0 0.0 0.00 0.00 0.00 93 1004.8
20260904050110 16 270 0.0 0.0 0.00 0.00 0.00 93 1004.8
20260904045610 16 270 0.0 0.0 0.00 0.00 0.00 94 1004.8
20260904045110 16 292 0.0 0.0 0.00 0.00 0.00 94 1004.8
20260904044610 16 292 0.0 0.0 0.00 0.00 0.00 93 1004.8
20260904044110 16 292 0.0 0.0 0.00 0.00 0.00 93 1004.7
20260904043610 15 292 0.0 0.0 0.00 0.00 0.00 93 1004.5
20260904043110 15 292 0.0 0.0 0.00 0.00 0.00 94 1004.6
20260904042610 15 292 0.0 0.0 0.00 0.00 0.00 94 1004.5
20260904042110 15 292 0.0 0.0 0.00 0.00 0.00 94 1004.5
20260904041610 14 292 0.0 0.0 0.00 0.00 0.00 94 1004.5
20260904041110 13 292 0.0 0.0 0.00 0.00 0.00 94 1004.5
20260904040610 13 292 0.0 0.0 0.00 0.00 0.00 93 1004.5
20260904040110 13 292 0.0 0.0 0.00 0.00 0.00 93 1004.5
20260904035610 13 292 0.0 0.0 0.00 0.00 0.00 93 1004.5
20260904035110 13 292 0.0 0.0 0.00 0.00 0.00 93 1004.5
20260904034610 13 292 0.0 0.0 0.00 0.00 0.00 93 1004.5
20260904034110 13 292 0.0 0.0 0.00 0.00 0.00 93 1004.6
20260904033610 13 292 0.0 0.0 0.00 0.00 0.00 93 1004.7
20260904033110 13 292 0.0 0.0 0.00 0.00 0.00 93 1004.5
20260904032610 13 292 0.0 0.0 0.00 0.00 0.00 93 1004.4
20260904032110 13 292 0.0 0.0 0.00 0.00 0.00 93 1004.6
20260904031610 13 292 0.0 0.0 0.00 0.00 0.00 93 1004.4
20260904031110 13 292 0.0 0.0 0.00 0.00 0.00 93 1004.6
20260904030610 14 292 0.0 0.0 0.00 0.00 0.00 93 1004.7
20260904030110 14 292 0.0 0.0 0.00 0.00 0.00 93 1004.7
20260904025610 14 292 0.0 0.0 0.00 0.00 0.00 93 1004.6
20260904025110 14 292 0.0 0.0 0.00 0.00 0.00 93 1004.6
20260904024610 15 292 0.0 0.0 0.00 0.00 0.00 93 1004.6
20260904024110 15 292 0.0 0.0 0.00 0.00 0.00 93 1004.7
20260904023610 15 292 0.0 0.0 0.00 0.00 0.00 93 1004.6
20260904023110 15 292 0.0 0.0 0.00 0.00 0.00 93 1004.5